Burnside, LA

10:52 PM CST on February 08, 2016 (GMT -0600)
Gonzales

Weather History for KL38 - November, 2012

Change the Weather History Date:

Monday, November 26, 2012

  Actual Average (KBTR) Record (KBTR)
Temperature  
Mean Temperature 59 °F 57 °F  
Max Temperature 70 °F 69 °F 85 °F (1973)
Min Temperature 48 °F 46 °F 30 °F (1936)
Degree Days  
Heating Degree Days 6 9  
Month to date heating degree days 153  
Since 1 July heating degree days 199  
Cooling Degree Days 0 1  
Month to date cooling degree days 45  
Year to date cooling degree days 2795  
Growing Degree Days 9 (Base 50)    
Moisture  
Dew Point 59 °F    
Average Humidity 90    
Maximum Humidity 99    
Minimum Humidity 74    
Precipitation  
Precipitation 0.16 in 0.14 in 5.04 in (1948)
Month to date precipitation 3.51  
Year to date precipitation 54.46  
Snow  
Snow - - - ()
Month to date snowfall  
Since 1 July snowfall  
Since 1 September snowfall  
Snow Depth -    
Sea Level Pressure  
Sea Level Pressure 30.08 in    
Wind  
Wind Speed 3 mph ()    
Max Wind Speed 12 mph    
Max Gust Speed 16 mph    
Visibility 9.5 miles    
Events Rain    
T = Trace of Precipitation, MM = Missing Value Source: Averaged Metar Reports

Daily Weather History Graph

Daily Weather History Graph

Search for Another Location

Airport or City:

Trip Planner

Search our weather history database for the weather conditions in past years. The results will help you decide how hot, cold, wet, or windy it might be!

Date:

Astronomy

Nov. 26, 2012 Rise Set
Actual Time 6:38 AM CST 5:03 PM CST
Civil Twilight 6:12 AM CST 5:29 PM CST
Nautical Twilight 5:43 AM CST 5:58 PM CST
Astronomical Twilight 5:14 AM CST 6:27 PM CST
Moon 3:52 PM CST (11/26) 4:53 AM CST (11/26)
Length of Visible Light 11h 16m
Length of Day
10h 24m
Waxing Gibbous, 97% of the Moon is Illuminated
Nov 26
Waxing Gibbous
Nov 28
Full
Dec 6
Last Quarter
Dec 13
New
Dec 19
First Quarter

Hourly Weather History & Observations

Time (CST) Temp. Dew Point Humidity Pressure Visibility Wind Dir Wind Speed Gust Speed Precip Events Conditions
12:15 AM 52.3 °F 44.4 °F 74% 30.09 in 10.0 mi Calm Calm - N/A   Clear
12:35 AM 51.8 °F 43.9 °F 74% 30.08 in 10.0 mi Calm Calm - N/A   Clear
12:55 AM 51.8 °F 43.7 °F 74% 30.08 in 10.0 mi Calm Calm - N/A   Clear
1:15 AM 51.1 °F 43.9 °F 76% 30.07 in 10.0 mi Calm Calm - N/A   Clear
1:35 AM 49.5 °F 44.2 °F 82% 30.07 in 10.0 mi Calm Calm - N/A   Clear
1:55 AM 48.7 °F 44.1 °F 84% 30.07 in 10.0 mi Calm Calm - N/A   Clear
2:15 AM 50.2 °F 44.6 °F 81% 30.07 in 10.0 mi Calm Calm - N/A   Clear
2:35 AM 51.3 °F 45.1 °F 80% 30.06 in 10.0 mi Calm Calm - N/A   Scattered Clouds
2:55 AM 51.4 °F 46.6 °F 83% 30.06 in 10.0 mi Calm Calm - N/A   Scattered Clouds
3:15 AM 52.9 °F 48.0 °F 84% 30.06 in 10.0 mi Calm Calm - N/A   Clear
3:35 AM 55.2 °F 50.0 °F 83% 30.05 in 10.0 mi Calm Calm - N/A Rain Light Rain
3:55 AM 55.6 °F 51.6 °F 87% 30.06 in 10.0 mi Calm Calm - N/A   Light Drizzle
4:15 AM 56.7 °F 53.1 °F 88% 30.05 in 10.0 mi Calm Calm - N/A   Scattered Clouds
4:35 AM 57.4 °F 54.0 °F 88% 30.05 in 10.0 mi Calm Calm - N/A   Mostly Cloudy
4:55 AM 57.7 °F 54.3 °F 88% 30.05 in 10.0 mi Calm Calm - N/A   Mostly Cloudy
5:15 AM 57.7 °F 54.5 °F 89% 30.06 in 10.0 mi Calm Calm - N/A   Mostly Cloudy
5:35 AM 57.6 °F 54.5 °F 90% 30.06 in 10.0 mi Calm Calm - N/A   Mostly Cloudy
5:55 AM 57.2 °F 54.3 °F 90% 30.07 in 10.0 mi Calm Calm - N/A   Overcast
6:15 AM 55.9 °F 53.6 °F 92% 30.07 in 10.0 mi Calm Calm - N/A   Overcast
6:35 AM 56.3 °F 53.6 °F 91% 30.08 in 10.0 mi Calm Calm - N/A   Overcast
6:55 AM 56.7 °F 54.0 °F 91% 30.08 in 10.0 mi North - - N/A   Overcast
7:15 AM 56.5 °F 54.7 °F 94% 30.08 in 10.0 mi Calm Calm - N/A   Overcast
7:35 AM 58.1 °F 56.1 °F 93% 30.09 in 10.0 mi Calm Calm - N/A   Overcast
7:55 AM 61.0 °F 57.4 °F 88% 30.10 in 10.0 mi Calm Calm - N/A   Overcast
8:15 AM 63.5 °F 59.5 °F 87% 30.10 in 10.0 mi SSE 6.9 mph - N/A   Overcast
8:35 AM 63.7 °F 60.6 °F 90% 30.11 in 7.0 mi South 5.8 mph - 0.02 in Rain Heavy Rain
8:55 AM 63.0 °F 61.5 °F 95% 30.12 in 7.0 mi South 5.8 mph - 0.09 in Rain Light Rain
9:15 AM 63.0 °F 61.9 °F 96% 30.13 in 7.0 mi SSE 3.5 mph - 0.01 in Rain Light Rain
9:35 AM 63.0 °F 62.4 °F 98% 30.13 in 5.0 mi ESE 4.6 mph - 0.05 in Rain Light Rain
9:55 AM 64.6 °F 63.9 °F 98% 30.12 in 10.0 mi SE 4.6 mph - 0.05 in Rain Light Rain
10:15 AM 64.9 °F 64.2 °F 98% 30.12 in 7.0 mi SSE 8.1 mph - 0.01 in   Drizzle
10:35 AM 64.8 °F 63.7 °F 96% 30.12 in 10.0 mi SSE 9.2 mph - 0.01 in Rain Rain
10:55 AM 65.5 °F 64.4 °F 96% 30.11 in 10.0 mi SE 6.9 mph - 0.02 in Rain Rain
11:15 AM 66.4 °F 64.9 °F 95% 30.10 in 10.0 mi SSE 6.9 mph - N/A   Overcast
11:35 AM 66.2 °F 64.8 °F 95% 30.10 in 10.0 mi SSE 8.1 mph - N/A   Overcast
11:55 AM 66.9 °F 64.6 °F 92% 30.08 in 10.0 mi South 8.1 mph - N/A   Overcast
12:15 PM 68.0 °F 64.8 °F 89% 30.07 in 10.0 mi SSE 6.9 mph - N/A   Overcast
12:35 PM 68.0 °F 64.6 °F 89% 30.07 in 10.0 mi South 8.1 mph - N/A   Overcast
12:55 PM 68.2 °F 64.9 °F 89% 30.06 in 10.0 mi SSE 8.1 mph - N/A   Overcast
1:15 PM 68.5 °F 64.6 °F 87% 30.06 in 10.0 mi SSE 8.1 mph - N/A   Overcast
1:35 PM 69.3 °F 64.4 °F 84% 30.06 in 10.0 mi SSE 11.5 mph - N/A   Overcast
1:55 PM 70.0 °F 65.1 °F 85% 30.05 in 10.0 mi SSE 11.5 mph 16.1 mph N/A   Overcast
2:15 PM 68.5 °F 64.4 °F 87% 30.05 in 10.0 mi SSE 10.4 mph 16.1 mph N/A   Overcast
2:35 PM 68.0 °F 63.5 °F 85% 30.05 in 10.0 mi SSE 10.4 mph - N/A   Overcast
2:55 PM 69.3 °F 63.5 °F 82% 30.04 in 10.0 mi SSE 10.4 mph - N/A   Mostly Cloudy
3:15 PM 68.2 °F 63.5 °F 85% 30.05 in 10.0 mi SSE 8.1 mph - N/A   Mostly Cloudy
3:35 PM 68.0 °F 63.1 °F 84% 30.05 in 10.0 mi SSE 9.2 mph - N/A   Overcast
3:55 PM 67.6 °F 63.5 °F 87% 30.05 in 10.0 mi SE 4.6 mph - N/A   Overcast
4:15 PM 68.0 °F 63.9 °F 87% 30.05 in 10.0 mi SSE 8.1 mph - N/A   Overcast
4:35 PM 67.3 °F 63.5 °F 88% 30.05 in 10.0 mi SSE 8.1 mph - N/A   Overcast
4:55 PM 67.1 °F 63.5 °F 88% 30.06 in 10.0 mi SSE 6.9 mph - N/A   Overcast
5:15 PM 66.6 °F 63.5 °F 90% 30.06 in 10.0 mi SSE 5.8 mph - N/A   Mostly Cloudy
5:35 PM 66.4 °F 63.7 °F 91% 30.06 in 10.0 mi SSE 3.5 mph - N/A   Mostly Cloudy
5:55 PM 66.2 °F 63.5 °F 91% 30.06 in 10.0 mi SSE 4.6 mph - N/A   Mostly Cloudy
6:15 PM 66.2 °F 63.5 °F 91% 30.07 in 10.0 mi SE 4.6 mph - N/A   Overcast
6:35 PM 66.0 °F 63.5 °F 92% 30.07 in 10.0 mi SSE 4.6 mph - N/A   Scattered Clouds
6:55 PM 66.2 °F 63.5 °F 91% 30.08 in 10.0 mi Calm Calm - N/A   Clear
7:15 PM 66.2 °F 63.7 °F 92% 30.08 in 10.0 mi SSE 3.5 mph - N/A   Mostly Cloudy
7:35 PM 66.0 °F 63.7 °F 92% 30.08 in 10.0 mi SSE 3.5 mph - N/A   Overcast
7:55 PM 65.5 °F 63.7 °F 94% 30.08 in 10.0 mi SSE 5.8 mph - N/A   Scattered Clouds
8:15 PM 64.6 °F 63.3 °F 96% 30.09 in 10.0 mi South 4.6 mph - N/A   Clear
8:35 PM 64.6 °F 63.5 °F 96% 30.10 in 10.0 mi SSE 4.6 mph - N/A   Mostly Cloudy
8:55 PM 64.8 °F 63.5 °F 96% 30.10 in 10.0 mi SSE 3.5 mph - N/A   Mostly Cloudy
9:15 PM 64.4 °F 63.5 °F 97% 30.10 in 10.0 mi SSE 3.5 mph - N/A   Scattered Clouds
9:35 PM 64.0 °F 63.3 °F 97% 30.09 in 10.0 mi SSE 3.5 mph - N/A   Clear
9:55 PM 63.5 °F 63.0 °F 98% 30.09 in 7.0 mi SSE 3.5 mph - N/A   Clear
10:15 PM 63.7 °F 63.5 °F 99% 30.09 in 7.0 mi SSE 5.8 mph - N/A   Clear
10:35 PM 63.9 °F 63.5 °F 99% 30.08 in 7.0 mi Calm Calm - N/A   Clear
10:55 PM 63.7 °F 63.5 °F 99% 30.08 in 7.0 mi SSE 4.6 mph - N/A   Clear
11:15 PM 63.9 °F 63.5 °F 99% 30.08 in 7.0 mi SSE 3.5 mph - N/A   Clear
11:35 PM 64.4 °F 63.9 °F 98% 30.09 in 7.0 mi SSE 4.6 mph - N/A   Clear
11:55 PM 64.8 °F 64.2 °F 98% 30.09 in 10.0 mi SSE 4.6 mph - N/A   Scattered Clouds